Weather History for Middletown, OH

Change the Weather History Date:

Friday, January 27, 2012

  Actual Average (KDAY) Record (KDAY)
Temperature  
Mean Temperature 36 °F 28 °F  
Max Temperature 39 °F 35 °F 66 °F (1916)
Min Temperature 33 °F 20 °F -9 °F (1936)
Degree Days  
Heating Degree Days 29 37  
Month to date heating degree days 1016  
Since 1 July heating degree days 3175  
Cooling Degree Days 0 0  
Month to date cooling degree days 0  
Year to date cooling degree days 0  
Moisture  
Dew Point 34 °F    
Average Humidity 95    
Maximum Humidity 100    
Minimum Humidity 81    
Precipitation  
Precipitation 0.00 in 0.08 in 0.95 in (1994)
Month to date precipitation 2.39  
Year to date precipitation 2.39  
Snow  
Snow 0.00 in 0.30 in 3.40 in (1979)
Month to date snowfall 6.9  
Since 1 July snowfall 12.4  
Snow Depth -    
Sea Level Pressure  
Sea Level Pressure 29.86 in    
Wind  
Wind Speed 7 mph (West)    
Max Wind Speed 12 mph    
Max Gust Speed 17 mph    
Visibility 7 miles    
Events Snow    
T = Trace of Precipitation, MM = Missing Value Source: NWS Daily Summary

Daily Weather History Graph

Daily Weather History Graph

Search for Another Location

Airport:

Trip Planner

Search our weather history database for the weather conditions in past years. The results will help you decide how hot, cold, wet, or windy it might be!

Date:

Astronomy

Jan. 27, 2012 Rise Set
Actual Time 7:49 AM EST 5:51 PM EST
Civil Twilight 7:20 AM EST 6:20 PM EST
Nautical Twilight 6:48 AM EST 6:52 PM EST
Astronomical Twilight 6:16 AM EST 7:24 PM EST
Moon 9:45 AM EST (1/27) 10:39 PM EST (1/27)
Length of Visible Light 10h 59m
Length of Day
10h 01m
Waxing Crescent, 19% of the Moon is Illuminated
Jan 27
Waxing Crescent
Jan 30
First Quarter
Feb 7
Full
Feb 14
Last Quarter
Feb 21
New

Hourly Weather History & Observations

Time (EST) Temp. Windchill Dew Point Humidity Pressure Visibility Wind Dir Wind Speed Gust Speed Precip Events Conditions
12:15 AM 39.2 °F 34.2 °F 39.2 °F 100% 29.53 in 10.0 mi WNW 6.9 mph - N/A   Mostly Cloudy
12:35 AM 39.2 °F 33.6 °F 39.2 °F 100% 29.53 in 10.0 mi WNW 8.1 mph - N/A   Overcast
12:55 AM 39.2 °F 35.9 °F 39.2 °F 100% 29.55 in 10.0 mi WNW 4.6 mph - N/A   Overcast
1:35 AM 37.4 °F 30.8 °F 35.6 °F 93% 29.58 in 10.0 mi West 9.2 mph 17.3 mph N/A   Overcast
1:55 AM 37.4 °F 30.3 °F 35.6 °F 93% 29.60 in 10.0 mi WNW 10.4 mph - N/A   Overcast
2:15 AM 37.4 °F 31.4 °F 37.4 °F 100% 29.62 in 2.5 mi West 8.1 mph 16.1 mph N/A Snow Light Snow
2:35 AM 35.6 °F 29.2 °F 35.6 °F 100% 29.63 in 4.0 mi West 8.1 mph - N/A Snow Light Snow
2:55 AM 33.8 °F 25.8 °F 33.8 °F 100% 29.54 in 5.0 mi NNE 10.4 mph - N/A Snow Light Snow
3:15 AM 33.8 °F 27.0 °F 33.8 °F 100% 29.61 in 10.0 mi WNW 8.1 mph - N/A   Overcast
3:35 AM 35.6 °F 29.9 °F 35.6 °F 100% 29.65 in 10.0 mi WSW 6.9 mph - N/A   Overcast
3:55 AM 33.8 °F 29.6 °F 33.8 °F 100% 29.65 in 5.0 mi WSW 4.6 mph - N/A Snow Light Snow
4:15 AM 33.8 °F 27.7 °F 33.8 °F 100% 29.67 in 7.0 mi SW 6.9 mph - N/A Snow Light Snow
4:35 AM 33.8 °F 27.7 °F 33.8 °F 100% 29.67 in 5.0 mi WSW 6.9 mph - N/A Snow Light Snow
4:55 AM 33.8 °F 28.6 °F 33.8 °F 100% 29.69 in 5.0 mi WSW 5.8 mph - N/A Snow Light Snow
5:15 AM 33.8 °F 27.7 °F 33.8 °F 100% 29.70 in 3.0 mi WSW 6.9 mph - N/A Snow Light Snow
5:35 AM 33.8 °F 27.7 °F 33.8 °F 100% 29.70 in 5.0 mi WSW 6.9 mph - N/A Snow Light Snow
5:55 AM 33.8 °F 28.6 °F 33.8 °F 100% 29.71 in 7.0 mi West 5.8 mph - N/A   Overcast
6:15 AM 33.8 °F 28.6 °F 33.8 °F 100% 29.72 in 10.0 mi West 5.8 mph - N/A   Overcast
6:35 AM 33.8 °F 27.7 °F 33.8 °F 100% 29.73 in 10.0 mi WSW 6.9 mph - N/A   Overcast
6:55 AM 33.8 °F 27.0 °F 33.8 °F 100% 29.75 in 10.0 mi WSW 8.1 mph - N/A   Overcast
7:35 AM 35.6 °F 29.2 °F 35.6 °F 100% 29.78 in 10.0 mi West 8.1 mph 16.1 mph N/A   Overcast
7:55 AM 37.4 °F 31.4 °F 37.4 °F 100% 29.80 in 5.0 mi West 8.1 mph - N/A   Overcast
8:15 AM 37.4 °F 31.4 °F 37.4 °F 100% 29.82 in 7.0 mi West 8.1 mph - N/A   Overcast
8:35 AM 37.4 °F 30.8 °F 37.4 °F 100% 29.83 in 4.0 mi West 9.2 mph - N/A   Overcast
8:55 AM 37.4 °F 31.4 °F 37.4 °F 100% 29.84 in 7.0 mi West 8.1 mph - N/A   Overcast
9:15 AM 37.4 °F 29.8 °F 35.6 °F 93% 29.85 in 7.0 mi WNW 11.5 mph 17.3 mph N/A   Overcast
9:35 AM 35.6 °F 28.6 °F 35.6 °F 100% 29.87 in 7.0 mi WNW 9.2 mph - N/A   Overcast
9:55 AM 35.6 °F 29.9 °F 35.6 °F 100% 29.87 in 7.0 mi West 6.9 mph - N/A   Overcast
10:15 AM 35.6 °F 29.9 °F 35.6 °F 100% 29.89 in 5.0 mi WNW 6.9 mph - N/A   Overcast
10:35 AM 35.6 °F 29.2 °F 35.6 °F 100% 29.90 in 3.0 mi West 8.1 mph - N/A   Overcast
10:55 AM 33.8 °F 25.8 °F 33.8 °F 100% 29.92 in 3.0 mi WNW 10.4 mph - N/A   Overcast
11:15 AM 33.8 °F 27.0 °F 33.8 °F 100% 29.93 in 2.5 mi West 8.1 mph - N/A   Overcast
11:35 AM 33.8 °F 26.4 °F 33.8 °F 100% 29.95 in 5.0 mi WNW 9.2 mph - N/A   Overcast
11:55 AM 33.8 °F 27.0 °F 33.8 °F 100% 29.94 in 5.0 mi WNW 8.1 mph - N/A   Overcast
12:35 PM 33.8 °F 28.6 °F 33.8 °F 100% 29.94 in 7.0 mi West 5.8 mph - N/A   Overcast
12:55 PM 33.8 °F 27.0 °F 33.8 °F 100% 29.93 in 10.0 mi West 8.1 mph - N/A   Overcast
1:15 PM 35.6 °F 27.5 °F 33.8 °F 93% 29.93 in 10.0 mi West 11.5 mph - N/A   Overcast
1:35 PM 35.6 °F 29.2 °F 33.8 °F 93% 29.93 in 7.0 mi WNW 8.1 mph - N/A   Overcast
1:55 PM 37.4 °F 32.1 °F 35.6 °F 93% 29.93 in 7.0 mi WNW 6.9 mph - N/A   Overcast
2:15 PM 37.4 °F 31.4 °F 35.6 °F 93% 29.94 in 7.0 mi West 8.1 mph - N/A   Overcast
2:35 PM 37.4 °F 30.8 °F 33.8 °F 87% 29.94 in 7.0 mi West 9.2 mph - N/A   Overcast
2:55 PM 37.4 °F 32.1 °F 33.8 °F 87% 29.95 in 7.0 mi West 6.9 mph - N/A   Overcast
3:15 PM 37.4 °F 30.8 °F 32.0 °F 81% 29.97 in 7.0 mi WSW 9.2 mph - N/A   Overcast
3:35 PM 37.4 °F 30.3 °F 33.8 °F 87% 29.98 in 7.0 mi WSW 10.4 mph - N/A   Overcast
3:55 PM 37.4 °F 31.4 °F 33.8 °F 87% 29.99 in 7.0 mi West 8.1 mph - N/A   Overcast
4:15 PM 37.4 °F 32.1 °F 32.0 °F 81% 29.99 in 7.0 mi West 6.9 mph - N/A   Overcast
4:35 PM 37.4 °F 32.1 °F 32.0 °F 81% 30.00 in 7.0 mi WSW 6.9 mph - N/A   Overcast
4:55 PM 37.4 °F 32.1 °F 33.8 °F 87% 30.01 in 7.0 mi WSW 6.9 mph - N/A   Overcast
5:15 PM 37.4 °F 32.1 °F 33.8 °F 87% 30.01 in 7.0 mi WSW 6.9 mph - N/A   Overcast
5:35 PM 37.4 °F 32.1 °F 33.8 °F 87% 30.01 in 7.0 mi SW 6.9 mph - N/A   Mostly Cloudy
5:55 PM 33.8 °F 29.6 °F 32.0 °F 93% 30.02 in 5.0 mi SW 4.6 mph - N/A   Mostly Cloudy
6:15 PM 35.6 °F 31.7 °F 33.8 °F 93% 30.03 in 7.0 mi SW 4.6 mph - N/A   Overcast
6:35 PM 37.4 °F 32.8 °F 35.6 °F 93% 30.05 in 7.0 mi SW 5.8 mph - N/A   Overcast
6:55 PM 35.6 °F 29.9 °F 33.8 °F 93% 30.05 in 7.0 mi SW 6.9 mph - N/A   Overcast
7:15 PM 33.8 °F 28.6 °F 32.0 °F 93% 30.05 in 7.0 mi SSW 5.8 mph - N/A   Overcast
7:35 PM 33.8 °F 29.6 °F 33.8 °F 100% 30.06 in 7.0 mi SW 4.6 mph - N/A   Overcast
8:15 PM 33.8 °F 27.7 °F 32.0 °F 93% 30.08 in 7.0 mi SW 6.9 mph - N/A   Overcast
8:35 PM 33.8 °F 28.6 °F 32.0 °F 93% 30.08 in 7.0 mi SW 5.8 mph - N/A   Overcast
8:55 PM 35.6 °F 30.7 °F 32.0 °F 87% 30.08 in 7.0 mi SW 5.8 mph - N/A   Overcast
9:15 PM 33.8 °F 28.6 °F 32.0 °F 93% 30.07 in 7.0 mi SSW 5.8 mph - N/A   Overcast
9:35 PM 33.8 °F 28.6 °F 32.0 °F 93% 30.07 in 7.0 mi SW 5.8 mph - N/A   Overcast
9:55 PM 33.8 °F 27.0 °F 32.0 °F 93% 30.08 in 7.0 mi SW 8.1 mph - N/A   Overcast
10:15 PM 33.8 °F 27.7 °F 32.0 °F 93% 30.07 in 7.0 mi SW 6.9 mph - N/A   Overcast
10:35 PM 33.8 °F 27.0 °F 32.0 °F 93% 30.06 in 7.0 mi SW 8.1 mph - N/A   Overcast
10:55 PM 33.8 °F 27.0 °F 32.0 °F 93% 30.05 in 7.0 mi SW 8.1 mph - N/A   Overcast
11:15 PM 33.8 °F 27.0 °F 32.0 °F 93% 30.05 in 10.0 mi SW 8.1 mph - N/A   Overcast
11:35 PM 33.8 °F 27.7 °F 32.0 °F 93% 30.05 in 10.0 mi SW 6.9 mph - N/A   Overcast
11:55 PM 33.8 °F 30.8 °F 32.0 °F 93% 30.05 in 10.0 mi WSW 3.5 mph - N/A   Overcast